Regional Weather Roundup
Issued by NWS

Home | Current Version | Previous Version | Text Only | Print | Product List | Glossary On
Versions: 1 2 3 4 5 6 7 8 9 10 11 12 13 14 15 16 17 18 19 20 21 22 23 24 25 26 27 28 29 30 31 32 33 34 35 36 37 38 39 40 41 42 43 44 45 46 47 48 49 50
000
ASUS43 KDMX 281701
RWRIA

WEATHER ROUNDUP FOR IOWA
NATIONAL WEATHER SERVICE DES MOINES IA
1200 PM CDT TUE MAR 28 2017

NOTE: "FAIR" INDICATES FEW OR NO CLOUDS BELOW 12,000 FEET WITH NO
SIGNIFICANT WEATHER AND/OR OBSTRUCTIONS TO VISIBILITY.

* - THESE STATIONS ARE NOT NWS STATIONS...THUS NOT UNDER NWS
QUALITY CONTROL.  THEY ALSO DO NOT REPORT WEATHER SUCH
AS PRECIPITATION OR FOG.

IAZ001>003-012>014-020>022-031>034-043>046-281800-
   NORTHWEST IOWA

CITY           SKY/WX    TMP DP  RH WIND       PRES   REMARKS
CARROLL *      CLOUDY    48  45  87 SE7       30.13S
CHEROKEE *     SUNNY     55  38  53 E12       30.13S
DENISON *      CLOUDY    50  41  71 E7        30.14S
LE MARS *      MOSUNNY   55  41  58 NE6G12    30.14S
ORANGE CITY *  SUNNY     55  43  62 E8        30.13F
SHELDON *      SUNNY     54  41  62 NE9       30.13R
SIOUX CITY     SUNNY     54  41  61 E7        30.13S
SPENCER        SUNNY     55  35  47 E8        30.13S
STORM LAKE *   SUNNY     52  39  62 NE10      30.12F
$$

IAZ055>058-069>071-079>083-090>094-281800-
   SOUTHWEST IOWA

CITY           SKY/WX    TMP DP  RH WIND       PRES   REMARKS
ATLANTIC *     CLOUDY    46  43  87 VRB6G13   30.13S
AUDUBON *      CLOUDY    48  43  81 E7        30.14R
CLARINDA *     CLOUDY    50  43  76 NE6       30.15S
COUNCIL BLFS *   N/A     46  45  93 E9        30.13R
CRESTON *      CLOUDY    48  43  81 NE8       30.13S
HARLAN  *      CLOUDY    48  45  87 E12       30.16S
LAMONI         CLOUDY    50  42  74 VRB6      30.11S
RED OAK *      CLOUDY    48  41  76 SE5       30.13S
SHENANDOAH *   CLOUDY    50  41  71 SE8       30.12F
$$

IAZ047>049-059>061-072>074-084-281800-
   CENTRAL IOWA

CITY           SKY/WX    TMP DP  RH WIND       PRES   REMARKS
AMES           CLOUDY    49  45  86 E6        30.14R
ANKENY *       CLOUDY    48  43  81 E5        30.15R
BOONE *        CLOUDY    48  46  93 E7        30.13R
CHARITON *     CLOUDY    48  45  87 NE7       30.12S
DES MOINES     CLOUDY    50  42  74 E3        30.14R
GRINNELL*      CLOUDY    49  42  79 NE5       30.15R
KNOXVILLE *    CLOUDY    48  41  76 NE6       30.12S
MARSHALLTOWN   CLOUDY    49  43  80 E10       30.12S
NEWTON *       CLOUDY    48  43  81 E7        30.13R
PELLA *        MOSUNNY   50  43  75 NE3       30.14S
PERRY *        CLOUDY    48  44  84 E6        30.14R
$$

IAZ004>006-015-016-023>025-035-036-281800-
   NORTH CENTRAL IOWA

CITY           SKY/WX    TMP DP  RH WIND       PRES   REMARKS
ALGONA *       SUNNY     54  41  62 E7G17     30.14S
CLARION *      MOSUNNY   52  45  76 SE6       30.14R
ESTHERVILLE    SUNNY     52  39  61 E5        30.14R
FORT DODGE *   CLOUDY    52  43  71 E7        30.15R
MASON CITY     MOSUNNY   51  39  63 E8        30.15S
FOREST CITY *    N/A     52  39  62 E8        30.15R
WEBSTER CITY * CLOUDY    50  43  76 E8        30.12R
IOWA FALLS *   CLOUDY    49  43  80 E7        30.15R
$$

IAZ007>011-017>019-026>030-037>042-050>054-066-281800-
   NORTHEAST IOWA

CITY           SKY/WX    TMP DP  RH WIND       PRES   REMARKS
CEDAR RAPIDS   CLOUDY    50  45  83 NE6       30.12S
CHARLES CITY * MOSUNNY   52  41  66 E7        30.14F
CLINTON *      CLOUDY    49  43  80 E10       30.15R
DECORAH *      MOSUNNY   50  39  66 VRB6      30.14S
DUBUQUE        CLOUDY    47  43  86 NE7       30.14S
MONTICELLO *   CLOUDY    50  45  81 NE6       30.13S
OELWEIN *      PTSUNNY   52  43  71 NE6       30.13F
WATERLOO       PTSUNNY   51  41  68 E6        30.13S
$$

IAZ064-065-067-068-078-281800-
   EAST CENTRAL IOWA

CITY           SKY/WX    TMP DP  RH WIND       PRES   REMARKS
DAVENPORT      CLOUDY    49  44  83 E9        30.14R
IOWA CITY      CLOUDY    53  44  71 E5        30.14S
MUSCATINE *    CLOUDY    52  46  82 NE7       30.13S
QUAD CITIES    CLOUDY    48  45  89 E9        30.13R FOG
$$

IAZ062-063-075>077-085>089-095>099-281800-
   SOUTHEAST IOWA

CITY           SKY/WX    TMP DP  RH WIND       PRES   REMARKS
BURLINGTON     CLOUDY    51  47  86 N3        30.11S
FAIRFIELD *    CLOUDY    50  45  81 E6        30.13R
FORT MADISON * CLOUDY    54  52  94 CALM      30.13R
KEOKUK *       CLOUDY    54  46  76 NE8       30.11R
OSKALOOSA *    CLOUDY    49  43  80 E6        30.13S
CENTERVILLE *  PTSUNNY   50  46  87 NE6       30.13S
OTTUMWA        CLOUDY    50  45  83 NE8       30.13R
WASHINGTON *   CLOUDY    50  46  87 NE5       30.14S
$$

ABBREVIATIONS USED IN REMARKS
   TC - TEMPERATURES IN CELSIUS
  WCI - WIND CHILL INDEX
   HX - HEAT INDEX
  VSB - VISIBILITY
$$





USA.gov is the U.S. government's official web portal to all federal, state and local government web resources and services.